Weather History for KLBB - December, 2013

Change the Weather History Date:

Sunday, December 22, 2013

  Actual Average Record
Temperature  
Mean Temperature 36 °F 40 °F  
Max Temperature 44 °F 53 °F 79 °F (1955)
Min Temperature 27 °F 26 °F -2 °F (1989)
Degree Days  
Heating Degree Days 29 25  
Month to date heating degree days 554 525  
Since 1 July heating degree days 1207 1167  
Cooling Degree Days 0 0  
Month to date cooling degree days 0 0  
Year to date cooling degree days 2123 1804  
Moisture  
Dew Point 24 °F    
Average Humidity 65    
Maximum Humidity 85    
Minimum Humidity 45    
Precipitation  
Precipitation T in 0.02 in 0.48 in (1991)
Month to date precipitation 0.60 0.56  
Year to date precipitation 12.61 18.92  
Snow  
Snow 0.00 in 0.10 in 3.00 in (2004)
Month to date snowfall 0.2 1.6  
Since 1 July snowfall 2.4 2.5  
Snow Depth 0.00 in    
Sea Level Pressure  
Sea Level Pressure 30.13 in    
Wind  
Wind Speed 10 mph (NNW)    
Max Wind Speed 18 mph    
Max Gust Speed 23 mph    
Visibility 10 miles    
Events Snow    
T = Trace of Precipitation, MM = Missing Value Source: NWS Daily Summary

Daily Weather History Graph

Daily Weather History Graph

Search for Another Location

Airport or City:

Trip Planner

Search our weather history database for the weather conditions in past years. The results will help you decide how hot, cold, wet, or windy it might be!

Date:

Astronomy

Dec. 22, 2013 Rise Set
Actual Time 7:48 AM CST 5:43 PM CST
Civil Twilight 7:20 AM CST 6:11 PM CST
Nautical Twilight 6:49 AM CST 6:42 PM CST
Astronomical Twilight 6:19 AM CST 7:12 PM CST
Moon 10:44 PM CST (12/22) 10:58 AM CST (12/22)
Length of Visible Light 10h 50m
Length of Day
9h 55m
Waning Gibbous, 76% of the Moon is Illuminated
Dec 22
Waning Gibbous
Dec 25
Last Quarter
Jan 1
New
Jan 7
First Quarter
Jan 15
Full

Hourly Weather History & Observations

Time (CST) Temp. Windchill Dew Point Humidity Pressure Visibility Wind Dir Wind Speed Gust Speed Precip Events Conditions
12:53 AM 28.0 °F 17.5 °F 21.9 °F 78% 29.86 in 10.0 mi North 12.7 mph - N/A   Mostly Cloudy
1:19 AM 26.6 °F 18.2 °F 21.2 °F 80% 29.87 in 10.0 mi North 8.1 mph - N/A   Scattered Clouds
1:53 AM 27.0 °F 18.7 °F 21.9 °F 81% 29.89 in 10.0 mi NNW 8.1 mph - N/A   Mostly Cloudy
2:53 AM 27.0 °F 18.0 °F 21.9 °F 81% 29.91 in 10.0 mi NNW 9.2 mph - N/A   Overcast
3:53 AM 27.0 °F 17.3 °F 21.9 °F 81% 29.94 in 10.0 mi NW 10.4 mph - N/A   Scattered Clouds
4:53 AM 28.0 °F 20.0 °F 21.9 °F 78% 29.96 in 10.0 mi NW 8.1 mph - N/A   Overcast
5:53 AM 30.0 °F 21.1 °F 21.9 °F 72% 29.99 in 10.0 mi NNW 10.4 mph - N/A   Overcast
6:53 AM 30.0 °F 20.0 °F 21.9 °F 72% 30.05 in 10.0 mi NW 12.7 mph - N/A   Overcast
7:53 AM 30.9 °F 21.2 °F 21.9 °F 69% 30.11 in 10.0 mi NW 12.7 mph - N/A   Overcast
8:32 AM 30.2 °F 18.5 °F 23.0 °F 75% 30.11 in 8.0 mi NNW 17.3 mph - 0.00 in Snow Light Snow
8:53 AM 30.9 °F 19.8 °F 25.0 °F 79% 30.16 in 4.0 mi NNW 16.1 mph - 0.00 in Snow Light Snow
9:34 AM 32.0 °F 23.0 °F 26.6 °F 80% 30.16 in 9.0 mi NNW 11.5 mph - 0.00 in   Mostly Cloudy
9:53 AM 32.0 °F 23.6 °F 26.1 °F 79% 30.19 in 10.0 mi NW 10.4 mph - 0.00 in   Mostly Cloudy
10:53 AM 37.0 °F 29.3 °F 26.1 °F 65% 30.20 in 10.0 mi NW 11.5 mph - N/A   Scattered Clouds
11:53 AM 39.9 °F 32.5 °F 26.1 °F 58% 30.20 in 10.0 mi NW 12.7 mph - N/A   Scattered Clouds
12:53 PM 42.1 °F 35.2 °F 26.1 °F 53% 30.19 in 10.0 mi NNW 12.7 mph - N/A   Scattered Clouds
1:53 PM 43.0 °F 37.7 °F 26.1 °F 51% 30.17 in 10.0 mi NNW 9.2 mph - N/A   Scattered Clouds
2:53 PM 44.1 °F 38.1 °F 27.0 °F 51% 30.18 in 10.0 mi NNW 11.5 mph - N/A   Partly Cloudy
3:53 PM 44.1 °F 39.0 °F 24.1 °F 45% 30.19 in 10.0 mi NNW 9.2 mph - N/A   Partly Cloudy
4:53 PM 42.1 °F 37.7 °F 23.0 °F 47% 30.21 in 10.0 mi NNW 6.9 mph - N/A   Partly Cloudy
5:53 PM 37.0 °F 33.3 °F 25.0 °F 62% 30.23 in 10.0 mi NNW 4.6 mph - N/A   Partly Cloudy
6:53 PM 34.0 °F 28.8 °F 26.1 °F 73% 30.25 in 10.0 mi ENE 5.8 mph - N/A   Partly Cloudy
7:53 PM 32.0 °F 25.6 °F 25.0 °F 75% 30.27 in 10.0 mi ENE 6.9 mph - N/A   Clear
8:53 PM 30.9 °F 24.3 °F 25.0 °F 79% 30.29 in 10.0 mi East 6.9 mph - N/A   Clear
9:53 PM 28.9 °F 21.9 °F 25.0 °F 85% 30.29 in 10.0 mi ESE 6.9 mph - N/A   Clear
10:53 PM 30.9 °F 22.2 °F 26.1 °F 82% 30.30 in 10.0 mi SE 10.4 mph - N/A   Clear
11:53 PM 30.0 °F 21.7 °F 25.0 °F 82% 30.29 in 10.0 mi SE 9.2 mph - N/A   Clear